User: anonymous   Login
Location: Westminster
(33.3626°N, 96.4619°W)
Time: 09:00:37
(UTC+00:00)
Language:

Cosmos 1500 Rocket - Orbit

View from above orbital plane
View from above orbital plane
View from above satellite
View from above satellite

Ground track
Ground track

The orbit data is extracted from the following two-line orbital elements,

1 14373U 83099B   22148.85677174  .00000336  00000-0  37362-4 0  9996
2 14373  82.5400 355.8338 0020832  27.8591 332.3735 14.83963541 88782
Epoch (UTC): 28 May 2022 20:33:45
Eccentricity: 0.0020832
inclination: 82.5400°
perigee height: 602 km
apogee height: 631 km
right ascension of ascending node: 355.8338°
argument of perigee: 27.8591°
revolutions per day: 14.83963541
mean anomaly at epoch: 332.3735°
orbit number at epoch: 8878

The dashed part of the orbit path shows where the satellite is in the earth's shadow,  

DLR